Weather History for Garden City, KS

Change the Weather History Date:

Saturday, May 12, 2012

  Actual Average Record
Temperature  
Mean Temperature 53 °F 62 °F  
Max Temperature 64 °F 75 °F 100 °F (1962)
Min Temperature 42 °F 49 °F 31 °F (1971)
Degree Days  
Heating Degree Days 12 5  
Month to date heating degree days 73  
Since 1 July heating degree days 5135  
Cooling Degree Days 0 2  
Month to date cooling degree days 16  
Year to date cooling degree days 28  
Growing Degree Days 3 (Base 50)    
Moisture  
Dew Point 39 °F    
Average Humidity 59    
Maximum Humidity 77    
Minimum Humidity 46    
Precipitation  
Precipitation 0.00 in 0.09 in 1.49 in (1975)
Month to date precipitation 0.96  
Year to date precipitation 5.02  
Sea Level Pressure  
Sea Level Pressure 30.30 in    
Wind  
Wind Speed 13 mph (NE)    
Max Wind Speed 20 mph    
Max Gust Speed 24 mph    
Visibility 10 miles    
Events      
T = Trace of Precipitation, MM = Missing Value Source: NWS Daily Summary

Daily Weather History Graph

Daily Weather History Graph

Search for Another Location

Airport:

Trip Planner

Search our weather history database for the weather conditions in past years. The results will help you decide how hot, cold, wet, or windy it might be!

Date:

Astronomy

May. 12, 2012 Rise Set
Actual Time 6:34 AM CDT 8:44 PM CDT
Civil Twilight 6:05 AM CDT 9:13 PM CDT
Nautical Twilight 5:29 AM CDT 9:49 PM CDT
Astronomical Twilight 4:50 AM CDT 10:28 PM CDT
Moon 2:01 AM CDT (5/12) 1:13 PM CDT (5/12)
Length of Visible Light 15h 07m
Length of Day
14h 09m
Waning Gibbous, 52% of the Moon is Illuminated
May 12
Waning Gibbous
May 12
Last Quarter
May 20
New
May 28
First Quarter
Jun 4
Full

Hourly Weather History & Observations

Time (CDT) Temp. Windchill Dew Point Humidity Pressure Visibility Wind Dir Wind Speed Gust Speed Precip Events Conditions
12:54 AM 54.0 °F - 39.0 °F 57% 30.21 in 10.0 mi NNE 17.3 mph - N/A   Partly Cloudy
1:54 AM 50.0 °F - 34.0 °F 54% 30.22 in 10.0 mi NE 16.1 mph - N/A   Clear
2:54 AM 46.9 °F - 33.1 °F 59% 30.22 in 10.0 mi NNE 13.8 mph 23.0 mph N/A   Clear
3:54 AM 46.0 °F 40.2 °F 33.1 °F 61% 30.25 in 10.0 mi NNE 12.7 mph - N/A   Mostly Cloudy
4:54 AM 44.1 °F 36.5 °F 34.0 °F 68% 30.26 in 10.0 mi NNE 17.3 mph 24.2 mph N/A   Overcast
5:54 AM 42.1 °F 33.6 °F 33.1 °F 70% 30.27 in 10.0 mi NNE 18.4 mph - N/A   Overcast
6:38 AM 42.8 °F 34.5 °F 32.0 °F 66% 30.31 in 10.0 mi NE 18.4 mph - N/A   Overcast
6:54 AM 42.1 °F 33.6 °F 32.0 °F 67% 30.30 in 10.0 mi NNE 18.4 mph - N/A   Overcast
7:02 AM 42.8 °F 34.3 °F 33.8 °F 70% 30.33 in 10.0 mi NNE 19.6 mph - N/A   Overcast
7:38 AM 42.8 °F 34.8 °F 33.8 °F 70% 30.34 in 10.0 mi NNE 17.3 mph - N/A   Mostly Cloudy
7:54 AM 43.0 °F 34.8 °F 34.0 °F 71% 30.32 in 10.0 mi NE 18.4 mph - N/A   Mostly Cloudy
8:22 AM 46.4 °F 39.2 °F 33.8 °F 62% 30.35 in 10.0 mi NE 18.4 mph - N/A   Mostly Cloudy
8:54 AM 46.9 °F - 35.1 °F 63% 30.33 in 10.0 mi NNE 15.0 mph - N/A   Overcast
9:54 AM 50.0 °F - 37.0 °F 61% 30.33 in 10.0 mi NE 10.4 mph - N/A   Overcast
10:22 AM 53.6 °F - 39.2 °F 58% 30.35 in 10.0 mi NNE 12.7 mph - N/A   Overcast
10:54 AM 55.0 °F - 39.9 °F 57% 30.32 in 10.0 mi NE 8.1 mph - N/A   Overcast
11:10 AM 55.4 °F - 39.2 °F 54% 30.35 in 10.0 mi NE 10.4 mph - N/A   Overcast
11:32 AM 57.2 °F - 41.0 °F 55% 30.35 in 10.0 mi NE 11.5 mph - N/A   Mostly Cloudy
11:54 AM 57.9 °F - 42.1 °F 56% 30.32 in 10.0 mi NNE 8.1 mph - N/A   Mostly Cloudy
12:24 PM 57.2 °F - 41.0 °F 55% 30.35 in 10.0 mi NE 10.4 mph - N/A   Overcast
12:54 PM 59.0 °F - 42.1 °F 53% 30.31 in 10.0 mi NNE 9.2 mph - N/A   Overcast
1:05 PM 60.8 °F - 42.8 °F 52% 30.34 in 10.0 mi NNE 5.8 mph - N/A   Mostly Cloudy
1:54 PM 60.1 °F - 43.0 °F 53% 30.30 in 10.0 mi Variable 4.6 mph - N/A   Overcast
2:54 PM 62.1 °F - 44.1 °F 52% 30.29 in 10.0 mi North 5.8 mph - N/A   Mostly Cloudy
3:54 PM 63.0 °F - 43.0 °F 48% 30.29 in 10.0 mi Variable 4.6 mph - N/A   Overcast
4:54 PM 62.1 °F - 43.0 °F 50% 30.28 in 10.0 mi ENE 5.8 mph - N/A   Overcast
5:54 PM 64.0 °F - 43.0 °F 46% 30.26 in 10.0 mi ENE 4.6 mph - N/A   Mostly Cloudy
6:54 PM 62.1 °F - 43.0 °F 50% 30.26 in 10.0 mi NNE 6.9 mph - N/A   Scattered Clouds
7:54 PM 62.1 °F - 43.0 °F 50% 30.25 in 10.0 mi ENE 6.9 mph - N/A   Overcast
8:54 PM 61.0 °F - 43.0 °F 52% 30.27 in 10.0 mi Calm Calm - N/A   Overcast
9:54 PM 60.1 °F - 43.0 °F 53% 30.29 in 10.0 mi NE 4.6 mph - N/A   Overcast
10:54 PM 55.0 °F - 43.0 °F 64% 30.31 in 10.0 mi NNE 6.9 mph - N/A   Overcast
11:54 PM 50.0 °F - 43.0 °F 77% 30.31 in 10.0 mi North 6.9 mph - N/A   Scattered Clouds